Notices

What's New in latest Release from April 7th, 2021:

- Updated Glossary, including Speed of Maximum Gust, and Total Hourly Precipitation

- Updated national and regional climate services offices contacts and prices information

- Addition of station inventory lists for 1981-2010, 1971-2000, and 1961-1990 Normals.

If you haven't already, please take our survey and provide feedback about our website: https://eccc.sondage-survey.ca/f/LanguageSelection.aspx?s=442ca660-fcf1-47c0-95a9-59707d6fd709

Hourly Data Report for May 12, 2021

MUSKOKA
ONTARIO
Current Station Operator: NAVCAN

44°58'29.000" N
79°18'12.000" W
281.90 m
6115529
71532
YQA

Download Data

Hourly Data (May 2021)
Hourly Data Report for May 12, 2021
TIME
LST
Temp Definition
°C
Dew Point Definition
°C
Rel Hum Definition
%
Precip. Amount Definition
mm

Wind Dir Definition
10's deg

Wind Spd Definition
km/h
Visibility Definition
km
Stn Press Definition
kPa
Hmdx Definition


Wind Chill Definition


Weather Definition


00:00 4.1 3.4 95 0.0 30 13 16.1 98.82     LegendNANA
01:00 3.3 2.7 96 0.0 30 9 16.1 98.84     LegendNANA
02:00 3.5 2.9 96 0.0 32 11 16.1 98.85     LegendNANA
03:00 1.9 1.4 96 0.0 34 5 16.1 98.87     LegendNANA
04:00 1.2 0.8 97 0.0 32 4 16.1 98.94     LegendNANA
05:00 0.8 0.5 98 0.0   0 16.1 99.00     LegendNANA
06:00 2.3 1.9 97 0.0 35 5 16.1 99.08     LegendNANA
07:00 5.3 2.8 84 0.0 34 13 16.1 99.17     LegendNANA
08:00 9.0 2.4 63 0.0 34 15 16.1 99.21     LegendNANA
09:00 11.8 1.3 48 0.0 33 17 16.1 99.22     LegendNANA
10:00 12.7 -0.3 41 0.0 34 18 16.1 99.19     LegendNANA
11:00 14.1 -1.5 34 0.0 33 24 16.1 99.18     LegendNANA
12:00 15.2 -2.2 30 0.0 32 22 16.1 99.15     LegendNANA
13:00 15.6 -3.2 27 0.0 33 26 16.1 99.09     LegendNANA
14:00 16.2 -3.3 26 0.0 32 26 16.1 99.06     LegendNANA
15:00 16.0 -3.8 25 0.0 35 22 16.1 99.04     LegendNANA
16:00 16.1 -0.5 32 0.0 29 15 16.1 99.03     LegendNANA
17:00 15.1 -1.0 33 0.0 30 22 16.1 99.07     LegendNANA
18:00 14.0 -1.2 35 0.0 29 18 16.1 99.09     LegendNANA
19:00 12.5 -1.8 37 0.0 29 15 16.1 99.14     LegendNANA
20:00 10.6 -2.1 41 0.0 29 11 16.1 99.16     LegendNANA
21:00 9.5 -1.8 45 0.0 28 8 16.1 99.16     LegendNANA
22:00 8.5 -1.6 49 0.0 30 8 16.1 99.16     LegendNANA
23:00 7.5 -0.7 56 0.0 29 5 16.1 99.14     LegendNANA

Notes on Data Quality.

Legend

  • E = Estimated
  • M = Missing
  • NA = Not Available*
  • [empty] = Indicates an unobserved value
Date modified: